Radiation Dose at Monitoring Post of Fukushima Daini Nuclear Power Station
Date,Time,MP-1(microSv/h),MP-2(microSv/h),MP-3(microSv/h),MP-4(microSv/h),MP-5(microSv/h),MP-6(microSv/h),MP-7(microSv/h),Wind Direction,Wind Velocity(m/s),Rain
2017/05/29,00:00,0.376,0.225,0.387,0.355,0.325,0.189,0.141,west,3.6,No
2017/05/29,00:10,0.376,0.227,0.386,0.358,0.324,0.188,0.142,west-northwest,2.5,No
2017/05/29,00:20,0.377,0.225,0.387,0.355,0.328,0.188,0.143,north-northwest,2.1,No
2017/05/29,00:30,0.375,0.225,0.387,0.358,0.324,0.189,0.140,north-northeast,1.3,No
2017/05/29,00:40,0.378,0.226,0.387,0.356,0.326,0.188,0.143,east-southeast,1.4,No
2017/05/29,00:50,0.374,0.226,0.387,0.355,0.326,0.188,0.142,south,2.5,No
2017/05/29,01:00,0.376,0.225,0.386,0.357,0.324,0.188,0.142,south-southwest,3.7,No
2017/05/29,01:10,0.376,0.225,0.388,0.355,0.327,0.188,0.143,south-southwest,3.9,No
2017/05/29,01:20,0.374,0.226,0.385,0.358,0.326,0.187,0.142,south-southwest,3.1,No
2017/05/29,01:30,0.375,0.226,0.386,0.356,0.324,0.189,0.142,south-southwest,3.3,No
2017/05/29,01:40,0.375,0.225,0.387,0.357,0.325,0.188,0.142,southwest,4.5,No
2017/05/29,01:50,0.374,0.225,0.385,0.357,0.324,0.188,0.142,south-southwest,4.0,No
2017/05/29,02:00,0.374,0.225,0.388,0.356,0.327,0.188,0.142,south-southwest,3.9,No
2017/05/29,02:10,0.375,0.227,0.386,0.358,0.325,0.188,0.143,southwest,4.6,No
2017/05/29,02:20,0.375,0.225,0.384,0.356,0.324,0.187,0.143,southwest,4.7,No
2017/05/29,02:30,0.374,0.225,0.387,0.357,0.325,0.188,0.142,southwest,4.4,No
2017/05/29,02:40,0.377,0.227,0.386,0.357,0.324,0.188,0.142,southwest,5.3,No
2017/05/29,02:50,0.376,0.226,0.386,0.355,0.327,0.187,0.142,southwest,6.4,No
2017/05/29,03:00,0.377,0.224,0.386,0.357,0.325,0.188,0.142,southwest,6.4,No
2017/05/29,03:10,0.376,0.226,0.385,0.356,0.326,0.189,0.143,southwest,5.1,No
2017/05/29,03:20,0.374,0.227,0.387,0.356,0.326,0.188,0.142,southwest,5.7,No
2017/05/29,03:30,0.376,0.226,0.386,0.358,0.324,0.188,0.143,southwest,5.0,No
2017/05/29,03:40,0.375,0.226,0.386,0.355,0.327,0.188,0.142,southwest,6.0,No
2017/05/29,03:50,0.375,0.226,0.387,0.357,0.323,0.188,0.141,southwest,5.6,No
2017/05/29,04:00,0.375,0.225,0.385,0.356,0.326,0.188,0.141,southwest,6.3,No
2017/05/29,04:10,0.373,0.225,0.386,0.356,0.325,0.188,0.142,southwest,5.5,No
2017/05/29,04:20,0.377,0.227,0.387,0.357,0.322,0.189,0.141,southwest,5.0,No
2017/05/29,04:30,0.373,0.225,0.385,0.355,0.325,0.188,0.141,southwest,3.5,No
2017/05/29,04:40,0.376,0.224,0.388,0.357,0.325,0.187,0.142,southwest,3.1,No
2017/05/29,04:50,0.375,0.227,0.386,0.356,0.326,0.187,0.142,southwest,3.3,No
2017/05/29,05:00,0.373,0.226,0.386,0.357,0.325,0.188,0.143,southwest,2.5,No
2017/05/29,05:10,0.376,0.224,0.387,0.357,0.324,0.188,0.141,southwest,1.7,No
2017/05/29,05:20,0.375,0.226,0.384,0.355,0.325,0.188,0.142,southwest,0.9,No
2017/05/29,05:30,0.375,0.225,0.386,0.356,0.324,0.187,0.141,southwest,2.1,No
2017/05/29,05:40,0.375,0.226,0.387,0.357,0.327,0.188,0.142,southwest,2.9,No
2017/05/29,05:50,0.375,0.225,0.385,0.355,0.324,0.187,0.142,south-southwest,3.3,No
2017/05/29,06:00,0.377,0.227,0.387,0.357,0.323,0.187,0.141,southwest,3.6,No
2017/05/29,06:10,0.373,0.223,0.384,0.355,0.326,0.189,0.141,west-southwest,1.9,No
2017/05/29,06:20,0.377,0.227,0.388,0.359,0.321,0.187,0.143,-,CALM,No
2017/05/29,06:30,0.374,0.224,0.385,0.354,0.326,0.189,0.142,west-southwest,1.4,No
2017/05/29,06:40,0.377,0.225,0.387,0.358,0.323,0.188,0.142,southwest,1.0,No
2017/05/29,06:50,0.374,0.225,0.386,0.353,0.325,0.187,0.142,west-southwest,0.6,No
2017/05/29,07:00,0.377,0.224,0.386,0.358,0.324,0.188,0.142,-,CALM,No
2017/05/29,07:10,0.373,0.225,0.381,0.353,0.327,0.187,0.141,south-southwest,1.0,No
2017/05/29,07:20,0.375,0.225,0.384,0.354,0.324,0.188,0.141,south,0.8,No
2017/05/29,07:30,0.374,0.225,0.385,0.357,0.326,0.188,0.142,south,1.2,No
2017/05/29,07:40,0.372,0.224,0.382,0.354,0.327,0.189,0.141,south,2.0,No
2017/05/29,07:50,0.376,0.224,0.379,0.351,0.322,0.188,0.141,southeast,2.4,No
2017/05/29,08:00,0.373,0.226,0.380,0.355,0.324,0.188,0.143,south-southeast,2.6,No
2017/05/29,08:10,0.372,0.227,0.383,0.356,0.324,0.188,0.143,south-southeast,2.9,No
2017/05/29,08:20,0.377,0.225,0.384,0.352,0.322,0.187,0.141,south,3.9,No
2017/05/29,08:30,0.376,0.224,0.382,0.353,0.324,0.189,0.141,south,4.3,No
2017/05/29,08:40,0.372,0.224,0.388,0.351,0.327,0.189,0.140,south-southeast,5.0,No
2017/05/29,08:50,0.376,0.226,0.387,0.353,0.323,0.189,0.141,south,5.0,No
2017/05/29,09:00,0.374,0.227,0.384,0.351,0.322,0.187,0.141,south,5.0,No
2017/05/29,09:10,0.373,0.225,0.388,0.353,0.323,0.188,0.140,south,5.1,No
2017/05/29,09:20,0.371,0.225,0.387,0.353,0.326,0.188,0.139,south,5.3,No
2017/05/29,09:30,0.370,0.222,0.383,0.354,0.324,0.188,0.139,south,7.4,No
2017/05/29,09:40,0.369,0.226,0.386,0.354,0.323,0.188,0.139,south,6.9,No
2017/05/29,09:50,0.371,0.227,0.387,0.355,0.320,0.189,0.138,south,7.8,No
2017/05/29,10:00,0.376,0.225,0.383,0.357,0.322,0.187,0.137,south,8.7,No
2017/05/29,10:10,0.375,0.225,0.385,0.355,0.326,0.188,0.136,south,9.8,No
2017/05/29,10:20,0.376,0.223,0.387,0.357,0.326,0.188,0.135,south,11.3,No
2017/05/29,10:30,0.373,0.227,0.385,0.360,0.325,0.188,0.136,south,12.6,No
2017/05/29,10:40,0.371,0.227,0.383,0.358,0.322,0.187,0.135,south,11.9,No
2017/05/29,10:50,0.372,0.227,0.380,0.357,0.322,0.188,0.135,south,11.2,No
2017/05/29,11:00,0.371,0.225,0.381,0.355,0.326,0.188,0.136,south,10.1,No
2017/05/29,11:10,0.375,0.224,0.383,0.354,0.326,0.189,0.133,south,11.7,No
2017/05/29,11:20,0.377,0.225,0.381,0.353,0.325,0.188,0.132,south,13.3,No
2017/05/29,11:30,0.374,0.227,0.384,0.356,0.322,0.188,0.130,south,13.1,No
2017/05/29,11:40,0.374,0.226,0.387,0.359,0.323,0.189,0.131,south,13.3,No
2017/05/29,11:50,0.372,0.225,0.388,0.359,0.327,0.189,0.131,south,13.4,No
2017/05/29,12:00,0.372,0.225,0.385,0.358,0.325,0.187,0.130,south,11.9,No
2017/05/29,12:10,0.372,0.227,0.383,0.354,0.324,0.188,0.130,south,11.1,No
2017/05/29,12:20,0.380,0.226,0.383,0.355,0.324,0.188,0.132,south,11.2,No
2017/05/29,12:30,0.377,0.225,0.384,0.354,0.324,0.189,0.131,south,10.9,No
2017/05/29,12:40,0.375,0.226,0.383,0.362,0.327,0.187,0.131,south,11.3,No
2017/05/29,12:50,0.372,0.227,0.383,0.359,0.325,0.188,0.131,south,10.8,No
2017/05/29,13:00,0.371,0.225,0.383,0.358,0.324,0.188,0.130,south,12.6,No
2017/05/29,13:10,0.376,0.224,0.382,0.355,0.323,0.188,0.130,south,12.9,No
2017/05/29,13:20,0.377,0.225,0.385,0.355,0.322,0.187,0.130,south,14.2,No
2017/05/29,13:30,0.374,0.227,0.390,0.354,0.326,0.187,0.131,south,14.8,No
2017/05/29,13:40,0.372,0.226,0.389,0.361,0.330,0.188,0.131,south,12.9,No
2017/05/29,13:50,0.373,0.225,0.387,0.360,0.325,0.188,0.129,south,13.3,No
2017/05/29,14:00,0.377,0.226,0.385,0.356,0.324,0.188,0.128,south,14.3,No
2017/05/29,14:10,0.376,0.228,0.384,0.355,0.322,0.189,0.128,south,13.1,No
2017/05/29,14:20,0.373,0.228,0.384,0.358,0.327,0.190,0.128,south,13.5,No
2017/05/29,14:30,0.371,0.225,0.384,0.363,0.327,0.189,0.128,south,14.4,No
2017/05/29,14:40,0.372,0.225,0.384,0.359,0.326,0.188,0.128,south,12.8,No
2017/05/29,14:50,0.377,0.228,0.386,0.357,0.323,0.188,0.128,south,13.1,No
2017/05/29,15:00,0.378,0.227,0.390,0.358,0.324,0.190,0.128,south,12.7,No
2017/05/29,15:10,0.376,0.227,0.390,0.362,0.324,0.188,0.129,south,13.9,No
2017/05/29,15:20,0.373,0.225,0.387,0.360,0.324,0.189,0.129,south-southwest,12.5,No
2017/05/29,15:30,0.378,0.223,0.386,0.358,0.322,0.187,0.127,south,11.6,No
2017/05/29,15:40,0.377,0.227,0.385,0.360,0.325,0.188,0.126,south-southwest,11.6,No
2017/05/29,15:50,0.375,0.228,0.385,0.359,0.325,0.189,0.127,south-southwest,11.6,No
2017/05/29,16:00,0.372,0.226,0.386,0.357,0.323,0.189,0.128,south-southwest,11.0,No
2017/05/29,16:10,0.377,0.227,0.391,0.358,0.323,0.189,0.127,south-southwest,11.1,No
2017/05/29,16:20,0.378,0.227,0.390,0.358,0.323,0.190,0.127,south-southwest,9.9,No
2017/05/29,16:30,0.375,0.228,0.386,0.358,0.324,0.189,0.129,south-southwest,8.6,No
2017/05/29,16:40,0.372,0.228,0.389,0.359,0.324,0.189,0.127,south-southwest,10.6,No
2017/05/29,16:50,0.378,0.227,0.393,0.361,0.325,0.189,0.128,south-southwest,9.5,No
2017/05/29,17:00,0.378,0.227,0.388,0.360,0.330,0.190,0.128,south-southwest,12.0,No
2017/05/29,17:10,0.375,0.227,0.386,0.356,0.328,0.189,0.127,south-southwest,11.8,No
2017/05/29,17:20,0.376,0.226,0.390,0.361,0.325,0.188,0.128,south-southwest,11.0,No
2017/05/29,17:30,0.378,0.227,0.388,0.361,0.324,0.190,0.127,south-southwest,9.1,No
2017/05/29,17:40,0.376,0.228,0.386,0.357,0.329,0.189,0.127,south-southwest,9.7,No
2017/05/29,17:50,0.376,0.226,0.391,0.362,0.328,0.189,0.129,south-southwest,10.2,No
2017/05/29,18:00,0.379,0.228,0.388,0.360,0.326,0.189,0.128,south-southwest,11.4,No
2017/05/29,18:10,0.376,0.227,0.385,0.357,0.327,0.190,0.127,south-southwest,11.9,No
2017/05/29,18:20,0.377,0.226,0.391,0.362,0.329,0.188,0.129,south-southwest,11.8,No
2017/05/29,18:30,0.380,0.228,0.387,0.360,0.326,0.189,0.127,south-southwest,10.7,No
2017/05/29,18:40,0.375,0.226,0.387,0.359,0.329,0.190,0.128,south-southwest,11.1,No
2017/05/29,18:50,0.376,0.228,0.389,0.363,0.326,0.188,0.128,south-southwest,10.3,No
2017/05/29,19:00,0.380,0.226,0.386,0.359,0.326,0.190,0.128,south-southwest,10.8,No
2017/05/29,19:10,0.376,0.227,0.391,0.362,0.328,0.190,0.128,south-southwest,11.2,No
2017/05/29,19:20,0.378,0.229,0.387,0.361,0.325,0.189,0.128,south-southwest,11.9,No
2017/05/29,19:30,0.379,0.226,0.389,0.359,0.328,0.189,0.128,south-southwest,10.4,No
2017/05/29,19:40,0.376,0.227,0.389,0.361,0.325,0.188,0.127,south-southwest,8.9,No
2017/05/29,19:50,0.380,0.226,0.386,0.359,0.328,0.189,0.128,south-southwest,9.3,No
2017/05/29,20:00,0.373,0.227,0.392,0.363,0.327,0.190,0.128,south-southwest,9.6,No
2017/05/29,20:10,0.377,0.226,0.386,0.361,0.325,0.189,0.128,south-southwest,9.6,No
2017/05/29,20:20,0.376,0.228,0.390,0.359,0.328,0.189,0.130,south-southwest,8.6,No
2017/05/29,20:30,0.376,0.226,0.390,0.362,0.325,0.189,0.128,south-southwest,7.8,No
2017/05/29,20:40,0.380,0.227,0.387,0.358,0.328,0.190,0.129,south-southwest,8.6,No
2017/05/29,20:50,0.374,0.228,0.389,0.362,0.324,0.189,0.127,south-southwest,8.1,No
2017/05/29,21:00,0.378,0.228,0.385,0.361,0.329,0.190,0.129,south-southwest,7.4,No
2017/05/29,21:10,0.375,0.226,0.390,0.359,0.325,0.188,0.127,south,7.5,No
2017/05/29,21:20,0.380,0.227,0.387,0.361,0.326,0.189,0.128,south,8.6,No
2017/05/29,21:30,0.375,0.227,0.389,0.358,0.326,0.190,0.128,south-southwest,8.4,No
2017/05/29,21:40,0.377,0.228,0.390,0.363,0.325,0.189,0.129,southwest,8.3,No
2017/05/29,21:50,0.378,0.228,0.389,0.359,0.326,0.189,0.129,southwest,10.1,No
2017/05/29,22:00,0.376,0.225,0.391,0.361,0.325,0.189,0.128,southwest,7.0,No
2017/05/29,22:10,0.378,0.228,0.388,0.360,0.328,0.190,0.128,southwest,4.9,No
2017/05/29,22:20,0.374,0.228,0.391,0.360,0.325,0.187,0.128,south-southwest,4.3,No
2017/05/29,22:30,0.380,0.227,0.388,0.362,0.327,0.190,0.129,south-southwest,5.0,No
2017/05/29,22:40,0.375,0.228,0.390,0.359,0.325,0.189,0.128,south-southwest,6.1,No
2017/05/29,22:50,0.379,0.228,0.388,0.361,0.326,0.188,0.130,south-southwest,5.5,No
2017/05/29,23:00,0.376,0.226,0.391,0.359,0.326,0.189,0.128,south-southwest,5.2,No
2017/05/29,23:10,0.377,0.229,0.389,0.361,0.327,0.188,0.128,south-southwest,4.9,No
2017/05/29,23:20,0.378,0.226,0.388,0.360,0.327,0.189,0.128,south,5.1,No
2017/05/29,23:30,0.376,0.228,0.389,0.363,0.327,0.189,0.129,south-southwest,5.9,No
2017/05/29,23:40,0.377,0.228,0.389,0.359,0.327,0.190,0.128,southwest,8.1,No
2017/05/29,23:50,0.377,0.228,0.390,0.362,0.326,0.189,0.129,southwest,8.3,No
